TimeCST,TemperatureF,Dew PointF,Humidity,Sea Level PressureIn,VisibilityMPH,Wind Direction,Wind SpeedMPH,Gust SpeedMPH,PrecipitationIn,Events,Conditions,WindDirDegrees,DateUTC
12:52 AM,42.1,37.0,82,29.50,6.0,West,18.4,25.3,N/A,,Haze,280,2012-12-20 06:52:00
1:52 AM,39.0,35.1,86,29.53,9.0,WNW,17.3,26.5,0.00,Rain,Light Rain,300,2012-12-20 07:52:00
2:52 AM,36.0,32.0,86,29.59,10.0,WNW,21.9,31.1,0.00,Rain,Light Rain,300,2012-12-20 08:52:00
3:04 AM,35.6,32.0,87,29.60,10.0,WNW,21.9,33.4,0.00,,Overcast,300,2012-12-20 09:04:00
3:37 AM,33.8,30.2,87,29.63,2.5,WNW,24.2,40.3,0.00,Snow,Light Snow,300,2012-12-20 09:37:00
3:42 AM,33.8,30.2,87,29.64,3.0,NW,29.9,39.1,0.00,Snow,Light Snow,310,2012-12-20 09:42:00
3:52 AM,34.0,28.9,82,29.65,4.0,NW,29.9,48.3,0.00,Snow,Light Snow,310,2012-12-20 09:52:00
4:16 AM,33.8,28.4,81,29.68,2.5,NW,25.3,43.7,0.00,Snow,Light Snow,320,2012-12-20 10:16:00
4:28 AM,33.8,28.4,81,29.70,3.0,WNW,29.9,40.3,0.00,Snow,Light Snow,300,2012-12-20 10:28:00
4:31 AM,33.8,28.4,81,29.70,2.5,NW,26.5,40.3,0.00,Snow,Light Snow,310,2012-12-20 10:31:00
4:52 AM,32.0,27.0,82,29.73,1.8,NW,35.7,49.5,0.00,Snow,Light Snow,310,2012-12-20 10:52:00
5:08 AM,30.2,26.6,86,29.74,2.0,WNW,27.6,40.3,0.00,Snow,Light Snow,300,2012-12-20 11:08:00
5:21 AM,30.2,26.6,86,29.76,4.0,NW,33.4,42.6,0.00,Snow,Light Snow,310,2012-12-20 11:21:00
5:37 AM,30.2,26.6,86,29.78,2.0,NW,32.2,41.4,0.00,Snow,Light Snow,310,2012-12-20 11:37:00
5:47 AM,30.2,26.6,86,29.79,4.0,NW,29.9,44.9,0.00,Snow,Light Snow,310,2012-12-20 11:47:00
5:52 AM,30.9,25.0,79,29.80,4.0,NW,32.2,44.9,0.00,Snow,Light Snow,310,2012-12-20 11:52:00
6:17 AM,30.2,26.6,86,29.83,2.5,WNW,24.2,39.1,0.00,Snow,Light Snow,300,2012-12-20 12:17:00
6:48 AM,30.2,26.6,86,29.87,3.0,WNW,25.3,39.1,0.00,Snow,Light Snow,300,2012-12-20 12:48:00
6:52 AM,30.0,26.1,85,29.88,4.0,NW,33.4,42.6,0.00,Snow,Light Snow,310,2012-12-20 12:52:00
7:52 AM,28.9,21.0,72,29.96,10.0,NW,24.2,39.1,0.00,,Mostly Cloudy,310,2012-12-20 13:52:00
8:52 AM,30.0,21.0,69,30.01,10.0,NW,27.6,39.1,N/A,,Clear,310,2012-12-20 14:52:00
9:52 AM,30.9,19.9,64,30.06,10.0,NW,26.5,38.0,N/A,,Clear,310,2012-12-20 15:52:00
11:52 AM,34.0,21.9,61,30.13,10.0,NW,24.2,33.4,N/A,,Clear,310,2012-12-20 17:52:00
12:52 PM,36.0,21.0,55,30.14,10.0,NW,25.3,35.7,N/A,,Clear,320,2012-12-20 18:52:00
1:52 PM,37.9,21.0,51,30.17,10.0,NW,21.9,36.8,N/A,,Clear,310,2012-12-20 19:52:00
2:52 PM,37.9,19.0,47,30.20,10.0,NW,23.0,33.4,N/A,,Clear,310,2012-12-20 20:52:00
3:52 PM,37.0,19.0,48,30.23,10.0,NW,23.0,35.7,N/A,,Clear,320,2012-12-20 21:52:00
4:52 PM,35.1,17.1,48,30.25,10.0,NW,17.3,24.2,N/A,,Clear,310,2012-12-20 22:52:00
5:52 PM,32.0,15.1,50,30.27,10.0,NW,10.4,20.7,N/A,,Clear,310,2012-12-20 23:52:00
6:52 PM,30.0,15.1,54,30.29,10.0,WNW,6.9,-,N/A,,Clear,290,2012-12-21 00:52:00
7:52 PM,28.0,15.1,58,30.31,10.0,West,4.6,-,N/A,,Clear,260,2012-12-21 01:52:00
8:52 PM,28.0,15.1,58,30.32,10.0,West,5.8,-,N/A,,Clear,260,2012-12-21 02:52:00
9:52 PM,28.0,16.0,61,30.34,10.0,West,5.8,-,N/A,,Clear,270,2012-12-21 03:52:00
10:52 PM,26.1,15.1,63,30.35,10.0,Calm,Calm,-,N/A,,Clear,0,2012-12-21 04:52:00
11:52 PM,25.0,15.1,66,30.35,10.0,WNW,3.5,-,N/A,,Clear,290,2012-12-21 05:52:00